Weather History for Grand Rapids, MI

Change the Weather History Date:

Tuesday, October 22, 2013

  Actual Average Record
Temperature  
Mean Temperature 43 °F 49 °F  
Max Temperature 50 °F 58 °F 82 °F (1979)
Min Temperature 35 °F 40 °F 23 °F (1944)
Degree Days  
Heating Degree Days 22 16  
Month to date heating degree days 198 280  
Since 1 July heating degree days 336 432  
Cooling Degree Days 0 0  
Month to date cooling degree days 14 4  
Year to date cooling degree days 767 696  
Moisture  
Dew Point 29 °F    
Average Humidity 66    
Maximum Humidity 82    
Minimum Humidity 49    
Precipitation  
Precipitation T in 0.10 in 1.40 in (1922)
Month to date precipitation 3.79 2.30  
Year to date precipitation 37.36 31.30  
Snow  
Snow 0.00 in 0.00 in 0.90 in (1987)
Month to date snowfall 0.0 0.2  
Since 1 July snowfall 0.0 0.2  
Since 1 September snowfall 0.0 0.2  
Snow Depth 0.00 in    
Sea Level Pressure  
Sea Level Pressure 29.90 in    
Wind  
Wind Speed 11 mph (WSW)    
Max Wind Speed 21 mph    
Max Gust Speed 25 mph    
Visibility 10 miles    
Events Rain    
T = Trace of Precipitation, MM = Missing Value Source: NWS Daily Summary

Daily Weather History Graph

Daily Weather History Graph

Search for Another Location

Airport:

Trip Planner

Search our weather history database for the weather conditions in past years. The results will help you decide how hot, cold, wet, or windy it might be!

Date:

Astronomy

Oct. 22, 2013 Rise Set
Actual Time 8:04 AM EDT 6:48 PM EDT
Civil Twilight 7:35 AM EDT 7:16 PM EDT
Nautical Twilight 7:02 AM EDT 7:49 PM EDT
Astronomical Twilight 6:29 AM EDT 8:22 PM EDT
Moon 9:24 PM EDT (10/22) 11:35 AM EDT (10/22)
Length of Visible Light 11h 41m
Length of Day
10h 43m
Waning Gibbous, 87% of the Moon is Illuminated
Oct 22
Waning Gibbous
Oct 26
Last Quarter
Nov 3
New
Nov 10
First Quarter
Nov 17
Full

Hourly Weather History & Observations

Time (EDT) Temp. Windchill Dew Point Humidity Pressure Visibility Wind Dir Wind Speed Gust Speed Precip Events Conditions
12:53 AM 41.0 °F 33.5 °F 24.1 °F 51% 29.90 in 10.0 mi West 13.8 mph 20.7 mph N/A   Overcast
1:53 AM 41.0 °F 34.3 °F 24.1 °F 51% 29.89 in 10.0 mi West 11.5 mph 21.9 mph N/A   Overcast
2:53 AM 39.9 °F 31.1 °F 24.1 °F 53% 29.89 in 10.0 mi West 17.3 mph 25.3 mph N/A   Mostly Cloudy
3:53 AM 37.9 °F 30.0 °F 25.0 °F 60% 29.89 in 10.0 mi West 12.7 mph - N/A   Scattered Clouds
4:53 AM 36.0 °F 29.0 °F 26.1 °F 67% 29.89 in 10.0 mi WSW 9.2 mph - N/A   Scattered Clouds
5:53 AM 36.0 °F 28.0 °F 26.1 °F 67% 29.89 in 10.0 mi WSW 11.5 mph - N/A   Partly Cloudy
6:53 AM 37.0 °F 29.8 °F 27.0 °F 67% 29.89 in 10.0 mi WSW 10.4 mph - N/A   Mostly Cloudy
7:53 AM 37.9 °F 30.9 °F 28.0 °F 68% 29.89 in 10.0 mi WSW 10.4 mph - N/A   Mostly Cloudy
8:53 AM 41.0 °F 35.8 °F 30.0 °F 65% 29.90 in 10.0 mi West 8.1 mph - N/A   Mostly Cloudy
9:53 AM 43.0 °F 36.4 °F 28.9 °F 58% 29.91 in 10.0 mi West 12.7 mph - N/A   Mostly Cloudy
10:53 AM 44.1 °F 37.1 °F 30.9 °F 60% 29.92 in 10.0 mi West 15.0 mph - N/A   Overcast
11:53 AM 45.0 °F 38.2 °F 32.0 °F 60% 29.92 in 10.0 mi West 15.0 mph 19.6 mph N/A   Mostly Cloudy
12:53 PM 46.0 °F 39.3 °F 32.0 °F 58% 29.92 in 10.0 mi WSW 16.1 mph - N/A   Overcast
1:53 PM 48.0 °F - 32.0 °F 54% 29.90 in 10.0 mi WSW 15.0 mph 19.6 mph N/A   Mostly Cloudy
2:53 PM 46.9 °F - 30.0 °F 52% 29.89 in 10.0 mi West 11.5 mph - N/A   Mostly Cloudy
3:53 PM 46.9 °F - 30.0 °F 52% 29.89 in 10.0 mi West 13.8 mph - N/A   Mostly Cloudy
4:53 PM 46.9 °F - 30.0 °F 52% 29.90 in 10.0 mi West 11.5 mph - N/A   Mostly Cloudy
5:53 PM 46.0 °F 41.0 °F 28.9 °F 51% 29.91 in 10.0 mi West 10.4 mph - N/A   Mostly Cloudy
6:53 PM 44.1 °F 39.0 °F 32.0 °F 63% 29.91 in 10.0 mi West 9.2 mph - N/A   Mostly Cloudy
7:53 PM 43.0 °F 36.8 °F 32.0 °F 65% 29.91 in 10.0 mi WNW 11.5 mph 16.1 mph N/A   Mostly Cloudy
8:53 PM 39.9 °F 32.9 °F 32.0 °F 73% 29.92 in 10.0 mi West 11.5 mph - 0.00 in Rain Light Rain
9:53 PM 39.0 °F 35.7 °F 33.1 °F 79% 29.92 in 10.0 mi SW 4.6 mph - 0.00 in   Mostly Cloudy
10:53 PM 37.9 °F 33.5 °F 32.0 °F 79% 29.91 in 10.0 mi WSW 5.8 mph - N/A   Overcast
11:53 PM 36.0 °F 32.1 °F 30.9 °F 82% 29.90 in 10.0 mi South 4.6 mph - N/A   Mostly Cloudy